Location: Newark
(44.1906°N, 75.9681°W)
Time: 11:21:11
(UTC+00:00)

Envisat - Pass Details

Date: 26 January 2020
Orbit: 764 x 766 km, 98.1° (Epoch: 25 February)

Event Time Altitude Azimuth Distance (km) Brightness Sun altitude
Rises 23:30:37 0° 187° (S) 3,219 6.5 -15.4°
Reaches altitude 10° 23:33:05 10° 196° (SSW) 2,297 5.8 -15.8°
Maximum altitude 23:37:45 37° 263° (W) 1,181 4.6 -16.6°
Drops below altitude 10° 23:42:28 10° 331° (NNW) 2,313 5.7 -17.5°
Sets 23:44:57 0° 339° (NNW) 3,243 6.4 -17.9°
